Location: Newark
(43.6583°N, 1.6617°E)
Time: 14:37:14
(UTC+00:00)

Tiros 1 - Pass Details

Date: 25 August 2019
Orbit: 630 x 664 km, 48.4° (Epoch: 18 September)

Event Time Altitude Azimuth Distance (km) Brightness Sun altitude
Rises 23:16:24 0° 246° (WSW) 2,909 - -35.0°
Reaches altitude 10° 23:18:43 10° 246° (WSW) 2,004 - -35.1°
Maximum altitude 23:23:20 86° 335° (NNW) 637 - -35.3°
Drops below altitude 10° 23:28:00 10° 66° (ENE) 2,019 - -35.4°
Sets 23:30:20 0° 67° (ENE) 2,933 - -35.5°
